Retour au catalogue

OPS 4682 DEB

ActifPO
NORAD 29059·DEBRIS·🇺🇸 United States

Lancé Apr 3, 1965 depuis Vandenberg Space Force Base

Loading…

Prochains Passages (prochaines 24 heures)

TLE

FraisSource: Space-Track

Époque: Sep 14, 2026, 07:11 UTC

1 29059U 65027BJ  26257.29970209  .00000300  00000-0  10513-2 0  9990
2 29059  90.2462   8.2461 0028850 357.6321  30.2138 12.94363531167144

Suivez OPS 4682 DEB en temps réel avec AllMySat

Download on the App Store